Location: Unspecified
(51.0459°N, 0.0000°E)
Time: 02:01:04
(UTC+00:00)

OTV 5 (USA 277) - Visible Passes

Search period start: 23 October 2019 00:00
Search period end: 02 November 2019 00:00
Orbit: 310 x 324 km, 54.5° (Epoch: 17 October)

Date Brightness Start Highest point End Pass type
(mag) Time Alt. Az. Time Alt. Az. Time Alt. Az.
29 Oct ? 18:52:43 10° SSW 18:53:11 13° SSW 18:53:11 13° SSW visible
30 Oct ? 17:34:47 10° SSE 17:35:51 12° SE 17:36:39 11° ESE visible
30 Oct ? 19:06:59 10° WSW 19:07:33 15° SW 19:07:33 15° SW visible
31 Oct ? 17:47:52 10° SSW 17:50:08 23° SE 17:50:56 20° ESE visible
31 Oct ? 19:21:32 10° WSW 19:21:50 12° WSW 19:21:50 12° WSW visible
01 Nov ? 18:01:54 10° SW 18:04:33 48° SSE 18:05:08 39° ESE visible
